When you browse on this site, cookies collect data to enhance your experience and personalize the content and advertising you see.
Visit our Privacy Policy to learn more. By continuing to use the site, you agree to this use of cookies and data.

Hourly Weather Atlantic City

Today, 15 July, Wednesday

Time Temperature Precipitation Wind Pressure Humidity
00:00 +22°C° 0 mm 3 mps 762 mmHg 78%
01:00 +22°C° 0 mm 3 mps 762 mmHg 77%
02:00 +21°C° 0 mm 3 mps 762 mmHg 78%
03:00 +21°C° 0 mm 3 mps 763 mmHg 79%
04:00 +21°C° 0 mm 3 mps 763 mmHg 80%
05:00 +22°C° 0 mm 3 mps 763 mmHg 77%
06:00 +24°C° 0 mm 3 mps 764 mmHg 75%
07:00 +25°C° 0 mm 4 mps 764 mmHg 72%
08:00 +27°C° 0 mm 4 mps 764 mmHg 67%
09:00 +28°C° 0 mm 4 mps 765 mmHg 63%
10:00 +30°C° 0 mm 5 mps 765 mmHg 58%
11:00 +29°C° 0.1 mm 5 mps 765 mmHg 61%
12:00 +29°C° 0.1 mm 5 mps 765 mmHg 65%
13:00 +28°C° 0.1 mm 5 mps 765 mmHg 68%
14:00 +28°C° 0 mm 5 mps 765 mmHg 67%
15:00 +28°C° 0 mm 5 mps 765 mmHg 66%
16:00 +28°C° 0 mm 5 mps 765 mmHg 66%
17:00 +26°C° 0 mm 5 mps 765 mmHg 72%
18:00 +25°C° 0 mm 5 mps 765 mmHg 78%
19:00 +23°C° 0 mm 5 mps 765 mmHg 85%
20:00 +22°C° 0 mm 5 mps 766 mmHg 87%
21:00 +22°C° 0 mm 5 mps 766 mmHg 90%
22:00 +21°C° 0 mm 5 mps 766 mmHg 92%
23:00 +21°C° 0 mm 5 mps 766 mmHg 93%

Tomorrow, 16 July, Thursday

Time Temperature Precipitation Wind Pressure Humidity
00:00 +21°C° 0 mm 4 mps 766 mmHg 93%
01:00 +21°C° 0 mm 4 mps 766 mmHg 94%
02:00 +21°C° 0 mm 4 mps 767 mmHg 94%
03:00 +21°C° 0 mm 4 mps 767 mmHg 94%
04:00 +21°C° 0 mm 4 mps 767 mmHg 94%
05:00 +22°C° 0 mm 4 mps 767 mmHg 88%
06:00 +23°C° 0 mm 4 mps 767 mmHg 82%
07:00 +25°C° 0 mm 4 mps 768 mmHg 76%
08:00 +26°C° 0 mm 5 mps 768 mmHg 71%
09:00 +26°C° 0 mm 5 mps 768 mmHg 67%
10:00 +27°C° 0 mm 5 mps 768 mmHg 62%
11:00 +27°C° 0 mm 5 mps 768 mmHg 62%
12:00 +28°C° 0 mm 5 mps 768 mmHg 62%
13:00 +28°C° 0 mm 5 mps 768 mmHg 62%
14:00 +27°C° 0 mm 5 mps 767 mmHg 63%
15:00 +27°C° 0 mm 5 mps 767 mmHg 64%
16:00 +26°C° 0 mm 5 mps 767 mmHg 66%
17:00 +25°C° 0 mm 5 mps 767 mmHg 71%
18:00 +23°C° 0 mm 4 mps 767 mmHg 77%
19:00 +22°C° 0 mm 4 mps 767 mmHg 83%
20:00 +22°C° 0 mm 4 mps 767 mmHg 84%
21:00 +22°C° 0 mm 4 mps 767 mmHg 86%
22:00 +22°C° 0 mm 4 mps 767 mmHg 87%
23:00 +22°C° 0 mm 4 mps 767 mmHg 89%

Day after tomorrow, 17 July, Friday

Time Temperature Precipitation Wind Pressure Humidity
00:00 +21°C° 0 mm 4 mps 767 mmHg 91%
01:00 +21°C° 0 mm 4 mps 766 mmHg 93%
02:00 +21°C° 0 mm 4 mps 766 mmHg 93%
03:00 +21°C° 0 mm 4 mps 766 mmHg 93%
04:00 +21°C° 0 mm 4 mps 766 mmHg 94%
05:00 +23°C° 0 mm 4 mps 766 mmHg 89%
06:00 +25°C° 0 mm 4 mps 766 mmHg 85%
07:00 +26°C° 0 mm 5 mps 766 mmHg 80%
08:00 +27°C° 0 mm 5 mps 766 mmHg 76%
09:00 +28°C° 0 mm 5 mps 766 mmHg 72%
10:00 +29°C° 0 mm 5 mps 765 mmHg 67%
11:00 +30°C° 0 mm 5 mps 765 mmHg 65%
12:00 +32°C° 0 mm 6 mps 765 mmHg 62%
13:00 +32°C° 0 mm 6 mps 765 mmHg 59%
14:00 +32°C° 0 mm 6 mps 764 mmHg 61%
15:00 +32°C° 0 mm 6 mps 764 mmHg 63%
16:00 +30°C° 0 mm 6 mps 764 mmHg 64%
17:00 +29°C° 0 mm 6 mps 763 mmHg 70%
18:00 +28°C° 0 mm 6 mps 763 mmHg 76%
19:00 +27°C° 0 mm 7 mps 763 mmHg 82%
20:00 +26°C° 0.3 mm 7 mps 763 mmHg 86%
21:00 +24°C° 0.3 mm 7 mps 763 mmHg 89%
22:00 +24°C° 0.3 mm 7 mps 763 mmHg 93%
23:00 +24°C° 0.2 mm 6 mps 763 mmHg 94%

18 July, Saturday

Time Temperature Precipitation Wind Pressure Humidity
00:00 +24°C° 0.2 mm 6 mps 763 mmHg 95%
01:00 +23°C° 0.2 mm 5 mps 762 mmHg 95%
02:00 +23°C° 0 mm 5 mps 762 mmHg 96%
03:00 +23°C° 0 mm 4 mps 762 mmHg 96%
04:00 +23°C° 0 mm 4 mps 762 mmHg 97%
05:00 +25°C° 0 mm 4 mps 762 mmHg 95%
06:00 +26°C° 0 mm 3 mps 762 mmHg 92%
07:00 +27°C° 0 mm 3 mps 762 mmHg 90%
08:00 +29°C° 0 mm 3 mps 762 mmHg 80%
09:00 +31°C° 0 mm 3 mps 762 mmHg 71%
10:00 +34°C° 0 mm 2 mps 762 mmHg 61%
11:00 +34°C° 0.1 mm 3 mps 762 mmHg 60%
12:00 +34°C° 0.1 mm 4 mps 761 mmHg 60%
13:00 +34°C° 0.1 mm 5 mps 761 mmHg 60%
14:00 +34°C° 0.3 mm 5 mps 761 mmHg 62%
15:00 +34°C° 0.3 mm 5 mps 761 mmHg 65%
16:00 +34°C° 0.3 mm 5 mps 760 mmHg 67%
17:00 +32°C° 0.4 mm 5 mps 760 mmHg 73%
18:00 +30°C° 0.4 mm 5 mps 760 mmHg 80%
19:00 +28°C° 0.4 mm 5 mps 760 mmHg 86%
20:00 +28°C° 0.5 mm 5 mps 760 mmHg 89%
21:00 +27°C° 0.5 mm 4 mps 761 mmHg 91%
22:00 +26°C° 0.5 mm 4 mps 761 mmHg 93%
23:00 +26°C° 0.3 mm 4 mps 760 mmHg 93%

19 July, Sunday

Time Temperature Precipitation Wind Pressure Humidity
00:00 +26°C° 0.3 mm 3 mps 760 mmHg 92%
01:00 +26°C° 0.3 mm 3 mps 760 mmHg 92%
02:00 +25°C° 0 mm 3 mps 760 mmHg 92%
03:00 +25°C° 0 mm 2 mps 760 mmHg 91%
04:00 +24°C° 0 mm 2 mps 760 mmHg 91%
05:00 +25°C° 0 mm 2 mps 760 mmHg 88%
06:00 +26°C° 0 mm 2 mps 760 mmHg 85%
07:00 +27°C° 0 mm 2 mps 761 mmHg 82%
08:00 +30°C° 0 mm 1 mps 761 mmHg 70%
09:00 +33°C° 0 mm 1 mps 761 mmHg 59%
10:00 +35°C° 0 mm 1 mps 761 mmHg 47%
11:00 +36°C° 0 mm 2 mps 760 mmHg 46%
12:00 +37°C° 0 mm 3 mps 760 mmHg 45%
13:00 +37°C° 0 mm 5 mps 759 mmHg 43%
14:00 +37°C° 0 mm 5 mps 759 mmHg 44%
15:00 +36°C° 0 mm 5 mps 759 mmHg 45%
16:00 +36°C° 0 mm 5 mps 758 mmHg 47%
17:00 +34°C° 0 mm 5 mps 758 mmHg 57%
18:00 +32°C° 0 mm 5 mps 758 mmHg 67%
19:00 +29°C° 0 mm 5 mps 758 mmHg 77%
20:00 +29°C° 0.1 mm 5 mps 758 mmHg 79%
21:00 +28°C° 0.1 mm 5 mps 758 mmHg 82%
22:00 +28°C° 0.1 mm 6 mps 758 mmHg 84%
23:00 +28°C° 0 mm 6 mps 758 mmHg 84%

20 July, Monday

Time Temperature Precipitation Wind Pressure Humidity
00:00 +28°C° 0 mm 6 mps 758 mmHg 84%
01:00 +28°C° 0 mm 6 mps 757 mmHg 84%
02:00 +28°C° 0 mm 5 mps 757 mmHg 84%
03:00 +28°C° 0 mm 5 mps 757 mmHg 84%
04:00 +28°C° 0 mm 5 mps 757 mmHg 84%
05:00 +28°C° 0 mm 5 mps 757 mmHg 81%
06:00 +29°C° 0 mm 5 mps 757 mmHg 79%
07:00 +29°C° 0 mm 5 mps 757 mmHg 77%
08:00 +30°C° 0 mm 5 mps 757 mmHg 72%
09:00 +33°C° 0 mm 5 mps 757 mmHg 68%
10:00 +34°C° 0 mm 5 mps 757 mmHg 63%
11:00 +35°C° 0 mm 5 mps 757 mmHg 59%
12:00 +36°C° 0 mm 5 mps 757 mmHg 55%
13:00 +39°C° 0 mm 5 mps 757 mmHg 51%
14:00 +39°C° 0 mm 5 mps 757 mmHg 50%
15:00 +39°C° 0 mm 5 mps 757 mmHg 50%
16:00 +39°C° 0 mm 6 mps 757 mmHg 50%
17:00 +36°C° 0 mm 5 mps 757 mmHg 57%
18:00 +34°C° 0 mm 5 mps 757 mmHg 64%
19:00 +33°C° 0 mm 5 mps 757 mmHg 71%
20:00 +32°C° 0 mm 4 mps 757 mmHg 75%
21:00 +30°C° 0 mm 4 mps 758 mmHg 78%
22:00 +28°C° 0 mm 3 mps 758 mmHg 82%
23:00 +28°C° 0 mm 3 mps 758 mmHg 78%
Show more